Погода в Кармакле

Россия / Новосибирская область     54°57′51″N   78°24′23″E
темп.,
°C
ветер,
м/с
пор.,
м/с
влажн.,
%
обл.,
%
осадки,
мм/ч
давл.,
гПа
погр.,
м
14 августа, вс
вс1401:00+17зюз71464100 0.1 1005349
04:00+15зюз8158552 0.4 1003356
07:00+14з713900 0.5 1005380
10:00+15з9127389 0.0 1006776
13:00+15зсз8117279 0.2 1008736
16:00+18зсз8115658 0.4 10081197
19:00+18з71152100 0.4 10091161
22:00+15зсз611612 0.0 1010546
15 августа, пн
пн1501:00+12зсз611780 0.0 1011321
04:00+10зсз511880 0.0 1011290
07:00+9зсз5109615 0.0 1012314
10:00+13зсз68675 0.0 1013601
13:00+15зсз7105897 0.1 10131079
16:00+15ссз795086 0.1 1013927
19:00+16сз794398 0.1 10131446
22:00+11с476013 0.0 1015146
16 августа, вт
вт1601:00+11зсз3658100 0.0 1015191
04:00+11зсз4759100 0.0 1015264
07:00+9сз49645 0.0 1016417
10:00+11сз57515 0.0 1016909
13:00+14сз564561 0.0 10161188
16:00+15ссз564362 0.0 10151238
19:00+15сз464593 0.0 10141035
22:00+11зюз3358100 0.0 101424
17 августа, ср
ср1701:00+12ююз3554100 0.0 101384
04:00+12юз51056100 0.0 1011386
07:00+9з2394100 3.9 1010204
10:00+11сз358592 0.5 1010654
13:00+11сз7884100 1.3 1011822
16:00+11ссз697966 0.5 1012783
19:00+12ссз696825 1.2 1013795
22:00+9сз237750 0.1 101464
18 августа, чт
чт1801:00+8сз33765 0.1 101364
04:00+7з2280100 0.0 101358
07:00+8з2385100 0.3 1013138
10:00+10зсз3478100 0.4 1013445
13:00+12з666690 1.3 1014897
16:00+12з5563100 0.1 1014809
19:00+11з436884 0.2 1015774
22:00+9зсз2372100 0.0 1015180